This demonstration page uses our WeatherBlox Daily Observations layout. Learn more.

Left ArrowRight Arrow

Hourly Observations for March 28, 2022

Temp ( °F °C ) Dew Point ( °F °C ) Humidity (%) Winds ( mph kmh ) Pressure ( in mb ) Visibility ( mi km ) Precip ( " mm )
12:59 am 00:59 Mostly Clear 40 4.4 18 -7.8 41 41 NNW 14 22 30.00 1016 10 16 0.00 0.00
1:59 am 01:59 Clear 38 3.3 17 -8.3 43 43 NNW 15 24 30.01 1016 10 16 0.00 0.00
2:59 am 02:59 Clear 37 2.8 16 -8.9 42 42 N 10 17 30.01 1016 10 16 0.00 0.00
3:59 am 03:59 Clear 37 2.8 17 -8.3 44 44 NNW 10 17 30.01 1016 10 16 0.00 0.00
4:59 am 04:59 Clear 37 2.8 16 -8.9 42 42 N 9 15 30.03 1017 10 16 0.00 0.00
5:59 am 05:59 Clear 36 2.2 16 -8.9 44 44 NNW 10 17 30.04 1017 10 16 0.00 0.00
6:59 am 06:59 Sunny 36 2.2 19 -7.2 50 50 N 5 7 30.05 1018 10 16 0.00 0.00
7:59 am 07:59 Mostly Sunny 39 3.9 20 -6.7 46 46 NNW 6 9 30.06 1018 10 16 0.00 0.00
8:59 am 08:59 Mostly Sunny 40 4.4 19 -7.2 43 43 NE 3 6 30.06 1018 10 16 0.00 0.00
9:59 am 09:59 Mostly Sunny 41 5 19 -7.2 41 41 Calm 30.06 1018 10 16 0.00 0.00
10:59 am 10:59 Mostly Sunny 43 6.1 19 -7.2 38 38 VRB 3 6 30.04 1017 10 16 0.00 0.00
11:59 am 11:59 Mostly Sunny 45 7.2 19 -7.2 35 35 W 9 15 30.01 1016 10 16 0.00 0.00
12:59 pm 12:59 Mostly Sunny 49 9.4 18 -7.8 29 29 W 16 26 29.98 1015 10 16 0.00 0.00
1:59 pm 13:59 Partly Cloudy 52 11.1 19 -7.2 27 27 W 12 19 29.95 1014 10 16 0.00 0.00
2:59 pm 14:59 Partly Cloudy 52 11.1 15 -9.4 23 23 W 13 20 29.92 1013 10 16 0.00 0.00
3:59 pm 15:59 Partly Cloudy 54 12.2 17 -8.3 23 23 WNW 21 33 29.91 1013 10 16 0.00 0.00
4:59 pm 16:59 Mostly Sunny 54 12.2 12 -11.1 19 19 WNW 25 41 29.92 1013 10 16 0.00 0.00
5:59 pm 17:59 Mostly Sunny 53 11.7 11 -11.7 18 18 NW 24 39 29.95 1014 10 16 0.00 0.00
6:30 pm 18:30 Sunny 45 7.2 26 -3.3 48 48 NE 23 37 30.00 1016 10 16 0.00 0.00
6:59 pm 18:59 Mostly Sunny 44 6.7 23 -5 43 43 NNE 22 35 30.02 1017 10 16 0.00 0.00
7:59 pm 19:59 Clear 42 5.6 18 -7.8 38 38 N 21 33 30.07 1018 10 16 0.00 0.00
8:59 pm 20:59 Clear 41 5 12 -11.1 30 30 N 16 26 30.12 1020 10 16 0.00 0.00
9:59 pm 21:59 Clear 38 3.3 17 -8.3 43 43 N 20 31 30.15 1021 10 16 0.00 0.00
10:59 pm 22:59 Clear 37 2.8 15 -9.4 41 41 NNW 17 28 30.17 1022 10 16 0.00 0.00
11:59 pm 23:59 Clear 36 2.2 13 -10.6 39 39 NNW 18 30 30.19 1022 10 16 0.00 0.00

Powered by AerisWeather